Princeton's Hourly Summary for Thursday, March 16, 2017
Hour Temp
(f)
RH
(%)
Solar Rad.
(MJ/m2)
Rainfall
(in)
Wind
(mph)
3/16/2017 12:00 AM 51 61 0 0 3.8
3/16/2017 1:00 AM 50 67 0 0 3.26
3/16/2017 2:00 AM 49 71 0 0 2.14
3/16/2017 3:00 AM 49 70 0 0 4.68
3/16/2017 4:00 AM 50 72 0 0 7.58
3/16/2017 5:00 AM 51 78 0 0 7.45
3/16/2017 6:00 AM 53 82 0 0 8.91
3/16/2017 7:00 AM 54 86 0 0 9.43
3/16/2017 8:00 AM 54 89 0 0 7.58
3/16/2017 9:00 AM 55 90 0.07 0 7.96
3/16/2017 10:00 AM 55 88 0.21 0 8.24
3/16/2017 11:00 AM 56 83 0.49 0 8.12
3/16/2017 12:00 PM 57 82 0.78 0 10.03
3/16/2017 1:00 PM 59 77 1.02 0 10.13
3/16/2017 2:00 PM 61 73 1.25 0 10.99
3/16/2017 3:00 PM 64 70 1.18 0 10.75
3/16/2017 4:00 PM 66 69 0.85 0 11.22
3/16/2017 5:00 PM 66 69 0.76 0 9.51
3/16/2017 6:00 PM 68 67 0.73 0 10.47
3/16/2017 7:00 PM 69 66 0.31 0 10.44
3/16/2017 8:00 PM 68 68 0.05 0 8.74
3/16/2017 9:00 PM 67 70 0 0 6.19
3/16/2017 10:00 PM 66 74 0 0 7.48
3/16/2017 11:00 PM 65 77 0 0 7.71
Data Summary 58 74 7.70 0.00 8.03